TimeEST,TemperatureF,Dew PointF,Humidity,Sea Level PressureIn,VisibilityMPH,Wind Direction,Wind SpeedMPH,Gust SpeedMPH,PrecipitationIn,Events,Conditions,WindDirDegrees,DateUTC
12:54 AM,28.0,19.0,69,30.13,-9999.0,North,-9999.0,-,N/A,,Unknown,0,2012-11-06 05:54:00
1:54 AM,27.0,19.0,72,30.14,-9999.0,North,-9999.0,-,N/A,,Unknown,0,2012-11-06 06:54:00
2:54 AM,27.0,19.9,75,30.14,-9999.0,North,-9999.0,-,N/A,,Unknown,0,2012-11-06 07:54:00
3:54 AM,26.1,21.0,81,30.15,-9999.0,North,-9999.0,-,N/A,,Unknown,0,2012-11-06 08:54:00
4:54 AM,26.1,18.0,71,30.17,-9999.0,North,-9999.0,-,N/A,,Unknown,0,2012-11-06 09:54:00
5:54 AM,25.0,15.1,66,30.19,-9999.0,North,-9999.0,-,N/A,,Unknown,0,2012-11-06 10:54:00
6:54 AM,24.1,14.0,65,30.20,-9999.0,North,-9999.0,-,N/A,,Unknown,0,2012-11-06 11:54:00
7:54 AM,26.1,14.0,60,30.22,-9999.0,North,-9999.0,-,N/A,,Unknown,0,2012-11-06 12:54:00
8:54 AM,27.0,14.0,58,30.22,-9999.0,North,-9999.0,-,N/A,,Unknown,0,2012-11-06 13:54:00
9:54 AM,30.0,12.9,49,30.23,-9999.0,North,-9999.0,-,N/A,,Unknown,0,2012-11-06 14:54:00
10:54 AM,32.0,12.9,45,30.23,-9999.0,North,-9999.0,-,N/A,,Unknown,0,2012-11-06 15:54:00
11:54 AM,32.0,12.9,45,30.22,-9999.0,North,-9999.0,-,N/A,,Unknown,0,2012-11-06 16:54:00
12:54 PM,35.1,14.0,42,30.20,-9999.0,North,-9999.0,-,N/A,,Unknown,0,2012-11-06 17:54:00
1:54 PM,35.1,12.9,40,30.20,-9999.0,North,-9999.0,-,N/A,,Unknown,0,2012-11-06 18:54:00
2:54 PM,35.1,12.9,40,30.19,-9999.0,North,-9999.0,-,N/A,,Unknown,0,2012-11-06 19:54:00
3:54 PM,35.1,14.0,42,30.19,-9999.0,North,-9999.0,-,N/A,,Unknown,0,2012-11-06 20:54:00
4:54 PM,30.9,16.0,54,30.21,-9999.0,North,-9999.0,-,N/A,,Unknown,0,2012-11-06 21:54:00
5:54 PM,28.9,17.1,61,30.23,-9999.0,North,-9999.0,-,N/A,,Unknown,0,2012-11-06 22:54:00
6:54 PM,27.0,18.0,69,30.23,-9999.0,North,-9999.0,-,N/A,,Unknown,0,2012-11-06 23:54:00
7:54 PM,26.1,19.0,75,30.25,-9999.0,North,-9999.0,-,N/A,,Unknown,0,2012-11-07 00:54:00
8:54 PM,24.1,19.0,81,30.26,-9999.0,North,-9999.0,-,N/A,,Unknown,0,2012-11-07 01:54:00
9:54 PM,23.0,18.0,81,30.25,-9999.0,North,-9999.0,-,N/A,,Unknown,0,2012-11-07 02:54:00
10:54 PM,21.9,18.0,85,30.25,-9999.0,North,-9999.0,-,N/A,,Unknown,0,2012-11-07 03:54:00
11:54 PM,19.9,17.1,89,30.23,-9999.0,North,-9999.0,-,N/A,,Unknown,0,2012-11-07 04:54:00